This is the latest recevied weather packets stored in our database for station/object K4IR. If no packets are shown the sender has not sent any weather packets the latest 10 day(s).
| Time | Temp. | Humidity | Pressure | Rain* | Wind** | Luminosity | Snow |
|---|---|---|---|---|---|---|---|
| 1788132898 | 26.11° C | 97% | 1019.3 hPa | 0 mm | - | 4 W/m² | - |
| 1788132296 | 26.67° C | 97% | 1019.3 hPa | 0 mm | - | 8 W/m² | - |
| 1788131693 | 26.67° C | 97% | 1019.6 hPa | 0 mm | - | 17 W/m² | - |
| 1788131093 | 26.67° C | 97% | 1019.4 hPa | 0 mm | - | 28 W/m² | - |
| 1788130488 | 26.67° C | 97% | 1019.6 hPa | 0 mm | - | 40 W/m² | - |
| 1788129886 | 26.67° C | 97% | 1019.4 hPa | 0 mm | - | 50 W/m² | - |
| 1788129286 | 26.67° C | 97% | 1019.4 hPa | 0 mm | - | 55 W/m² | - |
| 1788128686 | 26.11° C | 97% | 1019.7 hPa | 0 mm | - | 60 W/m² | - |
| 1788128083 | 26.67° C | 97% | 1019.7 hPa | 0 mm | - | 63 W/m² | - |
| 1788127479 | 26.67° C | 97% | 1019.6 hPa | 0 mm | - | 56 W/m² | - |
| 1788126878 | 26.67° C | 96% | 1019.9 hPa | 0 mm | - | 62 W/m² | - |
| 1788126273 | 26.67° C | 96% | 1019.9 hPa | 0 mm | - | 59 W/m² | - |
| 1788125669 | 26.67° C | 95% | 1020 hPa | 0.51 mm | - | 68 W/m² | - |
| 1788125066 | 27.22° C | 94% | 1020.1 hPa | 6.1 mm | - | 75 W/m² | - |
| 1788124466 | 27.22° C | 93% | 1020 hPa | 0 mm | - | 73 W/m² | - |
| 1788123861 | 27.78° C | 94% | 1020 hPa | 0 mm | - | 103 W/m² | - |
| 1788123258 | 27.78° C | 93% | 1020.3 hPa | 0 mm | - | 103 W/m² | - |
| 1788122652 | 27.22° C | 93% | 1020.2 hPa | 0 mm | - | 109 W/m² | - |
| 1788122050 | 27.22° C | 93% | 1020.1 hPa | 0 mm | - | 124 W/m² | - |
| 1788121450 | 26.67° C | 93% | 1020.2 hPa | 0 mm | - | 143 W/m² | - |
| 1788120846 | 27.22° C | 94% | 1019.9 hPa | 0 mm | - | 150 W/m² | - |
| 1788120241 | 26.67° C | 94% | 1020.1 hPa | 0 mm | - | 149 W/m² | - |
| 1788119635 | 26.67° C | 94% | 1020.5 hPa | 0 mm | - | 152 W/m² | - |
| 1788119034 | 26.67° C | 94% | 1020.4 hPa | 0 mm | - | 155 W/m² | - |
| 1788118428 | 26.11° C | 94% | 1020.9 hPa | 0 mm | - | 157 W/m² | - |
* Rain latest hour (hover to see other rain measurements)
** Current wind speed in m/s (hover to see current wind gust speed)